Regional Weather Roundup
Issued by NWS

Home | Current Version | Previous Version | Text Only | Print | Product List | Glossary Off
Versions: 1 2 3 4 5 6 7 8 9 10 11 12 13 14 15 16 17 18 19 20 21 22 23 24 25 26 27 28 29 30 31 32 33 34 35 36 37 38 39 40 41 42 43 44 45 46 47 48 49 50

000
ASUS43 KMPX 300501
RWRMN
WEATHER ROUNDUP FOR MINNESOTA
NATIONAL WEATHER SERVICE TWIN CITIES/CHANHASSEN MN
1200 AM CDT TUE JUN 30 2015


NOTE: "FAIR" INDICATES FEW OR NO CLOUDS BELOW 12,000 FEET WITH NO
SIGNIFICANT WEATHER AND/OR OBSTRUCTIONS TO VISIBILITY. N/A MEANS
CURRENT SKY AND/OR WEATHER CONDITIONS ARE NOT AVAILABLE.

MNZ060>063-068>070-300600-
   Twin Cities Metro

CITY           SKY/WX    TMP DP  RH WIND       PRES   REMARKS
TWIN CITIES    PTCLDY    66  63  90 CALM      29.84R
ST PAUL        CLEAR     63  62  97 CALM      29.84R
CRYSTAL        PTCLDY    65  62  90 W3        29.83R FOG
BLAINE         PTCLDY    64  63  94 NE3       29.85R FOG
LAKEVILLE      CLEAR     61  59  94 CALM      29.83S
EDEN PRAIRIE   CLEAR     65  63  93 NE3       29.83R FOG
SOUTH ST PAUL  CLEAR     63  61  94 CALM      29.84R
LAKE ELMO      FAIR      61  59  94 CALM      29.85R FOG
$$
MNZ001>005-007-008-013>017-022>024-027-028-300600-
   Northwest Minnesota

CITY           SKY/WX    TMP DP  RH WIND       PRES   REMARKS
BEMIDJI        CLEAR     57  54  91 N3        29.93R
HALLOCK        CLEAR     59  55  88 N5        29.93S
ROSEAU         CLEAR     61  55  82 N5        29.93S
WARROAD        CLEAR     64  61  88 NE7       29.94S
THIEF RVR FALL CLEAR     64  61  88 NE5       29.93S
CROOKSTON      CLEAR     63  61  94 NE3       29.93R
FOSSTON        CLEAR     59  55  88 CALM      29.93S
DETROIT LAKES  CLEAR     64  61  88 CALM      29.93S
MOORHEAD       CLEAR     64  61  88 N7        29.92R
PARK RAPIDS    CLEAR     67  57  70 N7        29.92R
MAHNOMEN       FAIR      62  60  91 CALM      29.92R
$$
MNZ006-009>011-018-025>026-300600-
   North Central Minnesota

CITY           SKY/WX    TMP DP  RH WIND       PRES   REMARKS
BAUDETTE       CLEAR     61  55  81 NE6       29.93R
FLAG ISLAND    CLEAR     64  54  68 E8        29.94R
INTL FALLS     CLEAR     62  53  72 NE9       29.93R
WASKISH        PTCLDY    63  55  77 N8        29.93R
BIG FORK       PTCLDY    55  54  94 CALM      29.92R FOG
LONGVILLE      CLEAR     63  57  82 CALM      29.91R
GRAND RAPIDS   CLEAR     59  54  82 CALM      29.90S
ORR            CLEAR     61  54  77 CALM      29.89R
COOK           CLEAR     59  55  88 CALM      29.90S
WALKER         FAIR      62  56  81 CALM      29.91S
$$
MNZ012-019>021-037-300600-
   Northeast Minnesota

CITY           SKY/WX    TMP DP  RH WIND       PRES   REMARKS
DULUTH         MOCLDY    63  57  81 N7        29.86S
ELY            CLEAR     61  55  82 N5        29.89R
HIBBING        CLEAR     55  53  93 NW5       29.89R
EVELETH        CLEAR     63  55  77 N7        29.89S
DULUTH HARBOR  MOCLDY    64  63  94 NE9       29.85R
TWO HARBORS    CLOUDY    64  59  82 N2        29.84R
GRAND MARAIS     N/A     58  55  90 CALM      29.84S
G MARAIS ARPRT MOCLDY    55  52  88 N6        29.89R
$$
MNZ029>031-032-039>041-046>048-054>057-064-300600-
   West Central Minnesota

CITY           SKY/WX    TMP DP  RH WIND       PRES   REMARKS
FERGUS FALLS   CLEAR     64  64 100 N5        29.90S
WHEATON        CLEAR     64  61  88 CALM      29.93R
MORRIS         CLEAR     64  63  94 NW7       29.90R
ALEXANDRIA     CLEAR     67  64  90 NW6       29.91S
ELBOW LAKE     FAIR      66  64  93 N7        29.90S
WADENA         CLEAR     64  59  82 N3        29.90R
GLENWOOD       CLEAR     64  63  94 NW5       29.90S
APPLETON       CLEAR     66  63  88 NW7       29.90R
BENSON         CLEAR     64  61  88 N5        29.89S
ORTONVILLE     CLEAR     66  61  82 N7        29.91S
MADISON        CLEAR     66  61  82 N7        29.91S
WILLMAR        FAIR      66  64  94 NW6       29.90R
$$
MNZ033>034-036-042>043-049>051-058-059-300600-
   Central Minnesota

CITY           SKY/WX    TMP DP  RH WIND       PRES   REMARKS
ST CLOUD       CLEAR     64  60  87 N5        29.85R
SAUK CENTRE    FAIR      65  63  91 NW5       29.89R
PAYNESVILLE    CLEAR     64  63  94 W5        29.88S
AITKIN         CLEAR     64  57  77 N6        29.87S
PINE RIVER       N/A     66  57  72 N5        29.94R
BRAINERD       CLEAR     67  58  72 NE7       29.89R
STAPLES        CLEAR     63  57  82 N3        29.90R
LONG PRAIRIE   CLOUDY    64  63  94 NW3       29.90R
LITTLE FALLS   CLEAR     66  55  68 CALM      29.87R
LITCHFIELD     CLEAR     70  66  88 NW5       29.88R
BUFFALO        PTCLDY    66  61  82 CALM      29.86R
MAPLE LAKE     CLEAR     67  63  87 CALM      29.86R
$$
MNZ037-044-045-052-053-300600-
   East Central Minnesota

CITY           SKY/WX    TMP DP  RH WIND       PRES   REMARKS
PRINCETON      CLEAR     63  61  94 CALM      29.85R
MORA           PTCLDY    61  59  94 CALM      29.88R
CAMBRIDGE      PTCLDY    66  59  77 CALM      29.83R
MOOSE LAKE     CLOUDY    61  61 100 CALM      29.85R
HINCKLEY       MOCLDY    64  61  88 CALM      29.86R
CLOQUET        CLEAR     59  55  88 N6        29.87S
MCGREGOR       CLEAR     63  57  82 N5        29.89R
$$
MNZ071>073-080-081-089-090-097-098-300600-
   Southwest Minnesota

CITY           SKY/WX    TMP DP  RH WIND       PRES   REMARKS
MONTEVIDEO     CLEAR     66  61  82 N6        29.90S
GRANITE FALLS  CLOUDY    66  63  89 NW8       29.91R
CANBY          MOCLDY    64  61  90 NW6       29.93R
MARSHALL       CLEAR     64  59  82 NW8       29.91R
REDWOOD FALLS  CLEAR     69  64  84 NW9       29.87S
OLIVIA         CLEAR     64  61  88 NW6       29.87R
PIPESTONE      CLEAR     70  61  73 CALM      29.93S
WINDOM         CLEAR     68  63  83 NW9       29.90R
WORTHINGTON    MOCLDY    64  57  77 NW7       29.92R
JACKSON        CLEAR     68  63  83 NW8       29.90S
TRACY          CLOUDY    68  64  89 NW7       29.91S
SLAYTON        PTCLDY    64  62  93 CALM      29.94R
$$
MNZ065>067-074>077-082>085-091>093-300600-
   South Central Minnesota

CITY           SKY/WX    TMP DP  RH WIND       PRES   REMARKS
MANKATO        CLEAR     68  63  83 NW7       29.84S
NEW ULM        CLEAR     66  64  94 NW9       29.85S
ST JAMES       CLEAR     66  63  88 NW8       29.87S
FAIRMONT       CLEAR     68  59  73 NW9       29.87R
GLENCOE        CLEAR     69  66  93 NW5       29.85R
FARIBAULT      CLEAR     63  59  88 CALM      29.84S
OWATONNA       CLEAR     64  57  77 SE7       29.84R
WASECA         CLEAR     63  61  94 CALM      29.85R
ALBERT LEA     CLEAR     64  59  82 CALM      29.85S
$$
MNZ078>079-086>088-094>096-300600-
   Southeast Minnesota

CITY           SKY/WX    TMP DP  RH WIND       PRES   REMARKS
ROCHESTER      CLEAR     60  58  92 W3        29.85R
RED WING       CLEAR     59  57  94 CALM      29.83R FOG
DODGE CENTER   CLEAR     63  59  88 SW8       29.84S
WINONA         CLEAR     61  59  94 CALM      29.84R FOG
AUSTIN         CLEAR     61  57  88 SW6       29.85R
PRESTON        CLEAR     58  56  94 CALM      29.85R FOG
$$
ABBREVIATIONS USED IN REMARKS
   TC - TEMPERATURES IN CELSIUS
  WCI - WIND CHILL INDEX
   HX - HEAT INDEX
  VSB - VISIBILITY
$$


USA.gov is the U.S. government's official web portal to all federal, state and local government web resources and services.